TimeCST,TemperatureF,Dew PointF,Humidity,Sea Level PressureIn,VisibilityMPH,Wind Direction,Wind SpeedMPH,Gust SpeedMPH,PrecipitationIn,Events,Conditions,WindDirDegrees,DateUTC
12:54 AM,53.1,33.1,47,30.08,10.0,SSW,10.4,-,N/A,,Scattered Clouds,210,2011-11-12 06:54:00
1:54 AM,52.0,33.1,49,30.09,10.0,SSW,10.4,-,N/A,,Partly Cloudy,210,2011-11-12 07:54:00
2:54 AM,52.0,33.1,49,30.08,10.0,SSW,9.2,-,N/A,,Clear,210,2011-11-12 08:54:00
3:54 AM,51.1,35.1,54,30.08,10.0,SSW,11.5,-,N/A,,Partly Cloudy,210,2011-11-12 09:54:00
4:54 AM,50.0,37.0,61,30.09,10.0,SSW,12.7,-,N/A,,Partly Cloudy,200,2011-11-12 10:54:00
5:54 AM,50.0,37.4,62,30.11,10.0,South,10.4,-,N/A,,Mostly Cloudy,190,2011-11-12 11:54:00
6:54 AM,48.0,37.9,68,30.11,10.0,South,11.5,-,N/A,,Mostly Cloudy,180,2011-11-12 12:54:00
7:54 AM,50.0,39.0,66,30.12,10.0,South,11.5,-,N/A,,Overcast,190,2011-11-12 13:54:00
8:54 AM,54.0,41.0,62,30.13,10.0,South,11.5,-,N/A,,Overcast,190,2011-11-12 14:54:00
9:54 AM,57.9,43.0,58,30.13,10.0,South,13.8,-,N/A,,Overcast,190,2011-11-12 15:54:00
10:54 AM,62.1,45.0,53,30.13,10.0,SSW,13.8,20.7,N/A,,Overcast,200,2011-11-12 16:54:00
11:54 AM,63.0,46.0,54,30.10,10.0,SSW,19.6,26.5,N/A,,Overcast,210,2011-11-12 17:54:00
12:54 PM,63.0,46.0,54,30.07,10.0,SSW,17.3,28.8,N/A,,Mostly Cloudy,200,2011-11-12 18:54:00
1:54 PM,64.9,46.9,52,30.04,10.0,South,18.4,29.9,N/A,,Overcast,180,2011-11-12 19:54:00
2:54 PM,64.0,46.0,52,30.03,10.0,South,15.0,27.6,N/A,,Overcast,190,2011-11-12 20:54:00
3:54 PM,64.0,46.0,52,30.01,10.0,South,21.9,29.9,N/A,,Overcast,190,2011-11-12 21:54:00
4:54 PM,64.0,46.0,52,30.01,10.0,South,18.4,-,N/A,,Overcast,180,2011-11-12 22:54:00
5:54 PM,63.0,46.9,56,29.99,10.0,South,19.6,-,N/A,,Overcast,170,2011-11-12 23:54:00
6:54 PM,63.0,46.9,56,29.98,10.0,South,16.1,21.9,N/A,,Overcast,170,2011-11-13 00:54:00
7:54 PM,62.6,46.4,55,29.98,10.0,South,17.3,23.0,N/A,,Overcast,180,2011-11-13 01:54:00
8:54 PM,63.0,46.9,56,29.97,10.0,South,15.0,-,N/A,,Overcast,180,2011-11-13 02:54:00
9:54 PM,63.0,46.9,56,29.97,10.0,South,15.0,-,N/A,,Overcast,190,2011-11-13 03:54:00
10:54 PM,61.0,48.0,62,29.95,10.0,South,11.5,23.0,N/A,,Scattered Clouds,170,2011-11-13 04:54:00
11:54 PM,62.1,48.0,60,29.94,10.0,South,16.1,26.5,N/A,,Scattered Clouds,190,2011-11-13 05:54:00